This demonstration page uses our WeatherBlox Daily Observations layout. Learn more.

Left ArrowRight Arrow

Hourly Observations for May 18, 2016

Temp ( °F °C ) Dew Point ( °F °C ) Humidity (%) Winds ( mph kmh ) Pressure ( in mb ) Visibility ( mi km ) Precip ( " mm )
12:11 am 00:11 Cloudy 51 10.6 46 7.8 83 83 NE 10 17 30.21 1023 10 16 0.00 0.00
12:41 am 00:41 Cloudy 51 10.6 46 7.8 83 83 NNE 12 19 30.21 1023 10 16 0.00 0.00
12:52 am 00:52 Cloudy 51 10.6 45 7.2 80 80 NNE 12 19 30.16 1022 10 16 0.00 0.00
1:52 am 01:52 Cloudy 51 10.6 45 7.2 80 80 NE 12 19 30.17 1022 10 16 0.00 0.00
2:52 am 02:52 Cloudy 49 9.4 45 7.2 86 86 NNE 8 13 30.17 1022 10 16 0.00 0.00
3:52 am 03:52 Cloudy 50 10 44 6.7 80 80 NE 9 15 30.17 1022 10 16 0.00 0.00
4:52 am 04:52 Cloudy 50 10 44 6.7 80 80 ENE 9 15 30.18 1022 10 16 0.00 0.00
5:44 am 05:44 Cloudy 50 10 45 7 82 82 ENE 14 22 30.24 1024 10 16 0.00 0.00
5:52 am 05:52 Cloudy 50 10 44 6.7 80 80 ENE 10 17 30.20 1023 10 16 0.00 0.00
6:52 am 06:52 Cloudy 50 10 44 6.7 80 80 NE 9 15 30.21 1023 10 16 0.00 0.00
7:31 am 07:31 Cloudy 50 10 45 7.2 83 83 NNE 8 13 30.24 1024 10 16 0.00 0.00
7:44 am 07:44 Cloudy 50 10 45 7 82 82 NNE 12 19 30.27 1025 10 16 0.00 0.00
7:52 am 07:52 Cloudy 50 10 46 7.8 86 86 NNE 8 13 30.23 1024 10 16 0.00 0.00
8:52 am 08:52 Cloudy 53 11.7 46 7.8 77 77 NE 13 20 30.24 1024 10 16 0.00 0.00
9:03 am 09:03 Cloudy 54 12 46 8 77 77 NE 9 15 30.27 1025 10 16 0.00 0.00
9:52 am 09:52 Partly Cloudy 57 13.9 46 7.8 67 67 ENE 17 28 30.24 1024 10 16 0.00 0.00
10:37 am 10:37 Mostly Cloudy 58 14.4 45 7.2 62 62 ENE 15 24 30.24 1024 10 16 0.00 0.00
10:52 am 10:52 Mostly Cloudy 59 15 45 7.2 60 60 ENE 14 22 30.23 1024 10 16 0.00 0.00
11:52 am 11:52 Mostly Cloudy 60 15.6 46 7.8 60 60 NNE 15 24 30.22 1023 10 16 0.00 0.00
12:52 pm 12:52 Mostly Cloudy 64 17.8 47 8.3 54 54 NE 12 19 30.20 1023 10 16 0.00 0.00
1:52 pm 13:52 Mostly Cloudy 65 18.3 45 7.2 49 49 NE 14 22 30.19 1022 10 16 0.00 0.00
2:52 pm 14:52 Mostly Sunny 66 18.9 44 6.7 45 45 ENE 10 17 30.17 1022 10 16 0.00 0.00
3:52 pm 15:52 Mostly Sunny 66 18.9 44 6.7 45 45 NNE 12 19 30.16 1021 10 16 0.00 0.00
4:52 pm 16:52 Mostly Cloudy 66 18.9 43 6.1 43 43 NNE 13 20 30.14 1021 10 16 0.00 0.00
5:52 pm 17:52 Partly Cloudy 64 17.8 44 6.7 48 48 NNE 7 11 30.13 1020 10 16 0.00 0.00
6:52 pm 18:52 Partly Cloudy 65 18.3 43 6.1 45 45 N 12 19 30.13 1020 10 16 0.00 0.00
7:52 pm 19:52 Sunny 62 16.7 43 6.1 50 50 NE 7 11 30.13 1020 10 16 0.00 0.00
8:52 pm 20:52 Clear 58 14.4 44 6.7 60 60 ENE 7 11 30.14 1021 10 16 0.00 0.00
9:52 pm 21:52 Clear 56 13.3 44 6.7 65 65 ENE 6 9 30.16 1021 10 16 0.00 0.00
10:52 pm 22:52 Clear 55 12.8 44 6.7 67 67 ENE 6 9 30.17 1022 10 16 0.00 0.00
11:52 pm 23:52 Clear 51 10.6 43 6.1 74 74 ENE 5 7 30.17 1022 10 16 0.00 0.00

Powered by AerisWeather